Home > Weather > Lillehammer > Past weeks

Flag for Norway Past Weather in Lillehammer, Norway — Yesterday and Last 2 Weeks

Now
63 °F

Mild.


Feels Like: 63 °F
Forecast: 49 / 63 °F
Wind: 1 mph from North

Location: Lillehammer-Saetherengen

Current Time: Jul 30, 2016 at 6:53:58 PM

Latest Report: Jul 30, 2016 at 6:00 PM


Visibility: N/A

Pressure: 29.56 "Hg

Humidity: 65%

Dew Point: 51 °F

Location of LillehammerLocation

Past Weather in Lillehammer — Graph

°F

Lillehammer Temperature Yesterday

Maximum temperature yesterday: 67 °F (at 2:00 PM)
Minimum temperature yesterday: 48 °F (at 6:00 AM)
Average temperature yesterday: 60 °F

High & Low Weather Summary for the Past Weeks

 TemperatureHumidityPressure
High77 °F (Jul 20, 5:00 PM)96% (Jul 30, 7:00 AM)30.11 "Hg (Jul 30, 7:00 AM)
Low48 °F (Jul 29, 6:00 AM)33% (Jul 28, 5:00 PM)29.56 "Hg (Jul 30, 5:00 PM)
Average62 °F73%29.90 "Hg
* Reported Jul 15 5:00 PM — Jul 30 5:00 PM, Lillehammer, Weather by CustomWeather, © 2016

Note: Actual official high and low records may vary slightly from our data, if they occured in-between our weather recording intervals... More about our weather records

Advertising

Lillehammer Weather History for the Previous 24 Hours

Scroll right to see more
 ConditionsComfort  
Time TempWeatherWind HumidityBarometerVisibility
5:00 PM
Sat, Jul 30
65 °FMild.3 mph58%29.56 "HgN/A
4:00 PM66 °FMild.2 mph70%29.57 "HgN/A
3:00 PM66 °FMild.2 mph61%29.57 "HgN/A
2:00 PM65 °FMild.1 mph62%29.58 "HgN/A
1:00 PM65 °FMild.3 mph64%29.58 "HgN/A
12:00 PM63 °FMild.3 mph68%29.59 "HgN/A
11:00 AM63 °FMild.1 mph72%29.60 "HgN/A
10:00 AM59 °FCool.2 mph80%29.61 "HgN/A
9:00 AM60 °FCool.1 mph80%29.61 "HgN/A
8:00 AM58 °FCool.1 mph94%29.62 "HgN/A
7:00 AM55 °FCool.No wind96%29.62 "HgN/A
6:00 AM54 °FCool.1 mph95%29.62 "HgN/A
5:00 AM54 °FCool.1 mph95%29.62 "HgN/A
3:00 AM55 °FCool.2 mph94%29.64 "HgN/A
2:00 AM55 °FCool.1 mph93%29.65 "HgN/A
1:00 AM55 °FCool.No wind92%29.67 "HgN/A
12:00 AM56 °FCool.3 mph88%29.68 "HgN/A
11:00 PM
Fri, Jul 29
57 °FCool.2 mph88%29.68 "HgN/A
10:00 PM58 °FCool.2 mph84%29.69 "HgN/A
9:00 PM59 °FCool.1 mph78%29.70 "HgN/A
8:00 PM63 °FMild.2 mph64%29.68 "HgN/A
7:00 PM65 °FMild.3 mph60%29.68 "HgN/A
6:00 PM65 °FMild.3 mph57%29.68 "HgN/A
Weather by CustomWeather, © 2016

See weather overviewHow to use our weather pages